"Sample Date","Sample Time","Sample Value","Units","Flow Rate","Sample Interval","Number Channels","Micron Size 0","Counts/Channel 0","Micron Size 1","Counts/Channel 1","Micron Size 2","Counts/Channel 2","Micron Size 3","Counts/Channel 3","Micron Size 4","Counts/Channel 4","Micron Size 5","Counts/Channel 5","Micron Size 6","Counts/Channel 6","Micron Size 7","Counts/Channel 7","Micron Size 8","Counts/Channel 8","Micron Size 9","Counts/Channel 9","Micron Size 10","Counts/Channel 10","Micron Size 11","Counts/Channel 11","Micron Size 12","Counts/Channel 12","Micron Size 13","Counts/Channel 13","Micron Size 14","Counts/Channel 14","Micron Size 15","Counts/Channel 15","Micron Size 16","Counts/Channel 16","Micron Size 17","Counts/Channel 17","Micron Size 18","Counts/Channel 18","Micron Size 19","Counts/Channel 19","Micron Size 20","Counts/Channel 20","Micron Size 21","Counts/Channel 21","Micron Size 22","Counts/Channel 22","Micron Size 23","Counts/Channel 23","Micron Size 24","Counts/Channel 24","Micron Size 25","Counts/Channel 25","Micron Size 26","Counts/Channel 26","Micron Size 27","Counts/Channel 27","Micron Size 28","Counts/Channel 28","Micron Size 29","Counts/Channel 29","Micron Size 30","Counts/Channel 30","Micron Size 31","Counts/Channel 31"
"03/06/08","08:00:02",56142.000,"cc",28391.611,6.00,6,0.100,51125.000,0.200,4659.000,0.300,316.000,0.500,41.000,1.000,1.000,5.000,0
"03/06/08","08:00:08",56434.000,"cc",28323.525,6.00,6,0.100,51449.000,0.200,4624.000,0.300,315.000,0.500,46.000,1.000,0,5.000,0
"03/06/08","08:00:14",56047.000,"cc",28353.354,6.00,6,0.100,51240.000,0.200,4517.000,0.300,261.000,0.500,29.000,1.000,0,5.000,0
"03/06/08","08:00:20",56335.000,"cc",28357.801,6.00,6,0.100,51223.000,0.200,4772.000,0.300,306.000,0.500,34.000,1.000,0,5.000,0
"03/06/08","08:00:26",56595.000,"cc",28300.732,6.00,6,0.100,51508.000,0.200,4720.000,0.300,329.000,0.500,38.000,1.000,0,5.000,0
"03/06/08","08:00:32",56484.000,"cc",28301.570,6.00,6,0.100,51517.000,0.200,4609.000,0.300,317.000,0.500,41.000,1.000,0,5.000,0
"03/06/08","08:00:38",56626.000,"cc",28308.637,6.00,6,0.100,51713.000,0.200,4547.000,0.300,318.000,0.500,46.000,1.000,2.000,5.000,0
"03/06/08","08:00:44",56569.000,"cc",28312.106,6.00,6,0.100,51621.000,0.200,4617.000,0.300,295.000,0.500,36.000,1.000,0,5.000,0
"03/06/08","08:00:50",56508.000,"cc",28302.559,6.00,6,0.100,51577.000,0.200,4607.000,0.300,297.000,0.500,25.000,1.000,2.000,5.000,0
"03/06/08","08:00:56",56307.000,"cc",28396.619,6.00,6,0.100,51267.000,0.200,4675.000,0.300,333.000,0.500,30.000,1.000,2.000,5.000,0
"03/06/08","08:01:02",56350.000,"cc",28251.315,6.00,6,0.100,51281.000,0.200,4685.000,0.300,333.000,0.500,48.000,1.000,3.000,5.000,0
"03/06/08","08:01:08",56478.000,"cc",28392.602,6.00,6,0.100,51560.000,0.200,4613.000,0.300,271.000,0.500,34.000,1.000,0,5.000,0
"03/06/08","08:01:14",56567.000,"cc",28310.723,6.00,6,0.100,51493.000,0.200,4682.000,0.300,334.000,0.500,56.000,1.000,2.000,5.000,0
"03/06/08","08:01:20",56911.000,"cc",28233.084,6.00,6,0.100,51811.000,0.200,4714.000,0.300,346.000,0.500,40.000,1.000,0,5.000,0
"03/06/08","08:01:26",56221.000,"cc",28259.424,6.00,6,0.100,51378.000,0.200,4491.000,0.300,315.000,0.500,35.000,1.000,2.000,5.000,0
"03/06/08","08:01:32",56338.000,"cc",28421.967,6.00,6,0.100,51403.000,0.200,4608.000,0.300,290.000,0.500,36.000,1.000,1.000,5.000,0
"03/06/08","08:01:38",56758.000,"cc",28290.469,6.00,6,0.100,51716.000,0.200,4699.000,0.300,300.000,0.500,43.000,1.000,0,5.000,0
"03/06/08","08:01:44",56427.000,"cc",28309.283,6.00,6,0.100,51462.000,0.200,4592.000,0.300,332.000,0.500,41.000,1.000,0,5.000,0
"03/06/08","08:01:50",56470.000,"cc",28366.113,6.00,6,0.100,51581.000,0.200,4548.000,0.300,299.000,0.500,41.000,1.000,1.000,5.000,0
"03/06/08","08:01:56",56372.000,"cc",28323.863,6.00,6,0.100,51356.000,0.200,4645.000,0.300,334.000,0.500,36.000,1.000,1.000,5.000,0
"03/06/08","08:02:02",56608.000,"cc",28314.402,6.00,6,0.100,51640.000,0.200,4654.000,0.300,272.000,0.500,39.000,1.000,3.000,5.000,0
"03/06/08","08:02:08",56562.000,"cc",28307.559,6.00,6,0.100,51638.000,0.200,4551.000,0.300,318.000,0.500,52.000,1.000,3.000,5.000,0
"03/06/08","08:02:14",56729.000,"cc",28299.158,6.00,6,0.100,51718.000,0.200,4655.000,0.300,310.000,0.500,45.000,1.000,1.000,5.000,0
"03/06/08","08:02:20",56329.000,"cc",28328.676,6.00,6,0.100,51403.000,0.200,4585.000,0.300,298.000,0.500,41.000,1.000,2.000,5.000,0
"03/06/08","08:02:26",55893.000,"cc",28390.600,6.00,6,0.100,50797.000,0.200,4701.000,0.300,335.000,0.500,58.000,1.000,2.000,5.000,0
"03/06/08","08:02:32",56658.000,"cc",28318.668,6.00,6,0.100,51566.000,0.200,4672.000,0.300,373.000,0.500,45.000,1.000,2.000,5.000,0
"03/06/08","08:02:38",56556.000,"cc",28357.850,6.00,6,0.100,51398.000,0.200,4792.000,0.300,319.000,0.500,46.000,1.000,1.000,5.000,0
"03/06/08","08:02:44",56422.000,"cc",28271.100,6.00,6,0.100,51540.000,0.200,4530.000,0.300,319.000,0.500,31.000,1.000,2.000,5.000,0
"03/06/08","08:02:50",56846.000,"cc",28299.606,6.00,6,0.100,51829.000,0.200,4664.000,0.300,309.000,0.500,42.000,1.000,2.000,5.000,0
"03/06/08","08:02:56",57024.000,"cc",28314.293,6.00,6,0.100,51971.000,0.200,4726.000,0.300,286.000,0.500,41.000,1.000,0,5.000,0
"03/06/08","08:03:02",55989.000,"cc",28311.893,6.00,6,0.100,51129.000,0.200,4562.000,0.300,257.000,0.500,40.000,1.000,1.000,5.000,0
"03/06/08","08:03:08",56686.000,"cc",28360.299,6.00,6,0.100,51768.000,0.200,4569.000,0.300,306.000,0.500,43.000,1.000,0,5.000,0
"03/06/08","08:03:14",56499.000,"cc",28306.963,6.00,6,0.100,51642.000,0.200,4562.000,0.300,262.000,0.500,32.000,1.000,1.000,5.000,0
"03/06/08","08:03:20",56469.000,"cc",28237.637,6.00,6,0.100,51593.000,0.200,4516.000,0.300,317.000,0.500,40.000,1.000,3.000,5.000,0
"03/06/08","08:03:26",56784.000,"cc",28285.943,6.00,6,0.100,51925.000,0.200,4505.000,0.300,299.000,0.500,53.000,1.000,2.000,5.000,0
"03/06/08","08:03:32",56988.000,"cc",28319.965,6.00,6,0.100,51942.000,0.200,4669.000,0.300,319.000,0.500,56.000,1.000,2.000,5.000,0
"03/06/08","08:03:38",56690.000,"cc",28380.414,6.00,6,0.100,51789.000,0.200,4551.000,0.300,314.000,0.500,36.000,1.000,0,5.000,0
"03/06/08","08:03:44",56831.000,"cc",28308.930,6.00,6,0.100,51806.000,0.200,4669.000,0.300,306.000,0.500,50.000,1.000,0,5.000,0
"03/06/08","08:03:50",56444.000,"cc",28374.897,6.00,6,0.100,51509.000,0.200,4578.000,0.300,316.000,0.500,40.000,1.000,1.000,5.000,0
"03/06/08","08:03:56",56666.000,"cc",28327.918,6.00,6,0.100,51669.000,0.200,4661.000,0.300,290.000,0.500,45.000,1.000,1.000,5.000,0
"03/06/08","08:04:02",57218.000,"cc",28299.449,6.00,6,0.100,52342.000,0.200,4503.000,0.300,331.000,0.500,39.000,1.000,3.000,5.000,0
"03/06/08","08:04:08",56813.000,"cc",28310.365,6.00,6,0.100,51884.000,0.200,4612.000,0.300,289.000,0.500,28.000,1.000,0,5.000,0
"03/06/08","08:04:14",56838.000,"cc",28348.297,6.00,6,0.100,51887.000,0.200,4575.000,0.300,331.000,0.500,44.000,1.000,1.000,5.000,0
"03/06/08","08:04:20",57085.000,"cc",28311.680,6.00,6,0.100,52219.000,0.200,4534.000,0.300,289.000,0.500,41.000,1.000,2.000,5.000,0
"03/06/08","08:04:26",56995.000,"cc",28305.338,6.00,6,0.100,52038.000,0.200,4580.000,0.300,339.000,0.500,36.000,1.000,2.000,5.000,0
"03/06/08","08:04:32",57091.000,"cc",28261.367,6.00,6,0.100,52072.000,0.200,4634.000,0.300,329.000,0.500,56.000,1.000,0,5.000,0
"03/06/08","08:04:38",57128.000,"cc",28383.910,6.00,6,0.100,52061.000,0.200,4661.000,0.300,341.000,0.500,63.000,1.000,2.000,5.000,0
"03/06/08","08:04:44",56396.000,"cc",28376.426,6.00,6,0.100,51453.000,0.200,4600.000,0.300,285.000,0.500,57.000,1.000,1.000,5.000,0
"03/06/08","08:04:50",57167.000,"cc",28296.729,6.00,6,0.100,52167.000,0.200,4628.000,0.300,317.000,0.500,51.000,1.000,4.000,5.000,0
"03/06/08","08:04:56",57504.000,"cc",28249.451,6.00,6,0.100,52460.000,0.200,4676.000,0.300,314.000,0.500,51.000,1.000,3.000,5.000,0
"03/06/08","08:05:02",57203.000,"cc",28272.879,6.00,6,0.100,52030.000,0.200,4740.000,0.300,373.000,0.500,57.000,1.000,3.000,5.000,0
"03/06/08","08:05:08",57413.000,"cc",28358.463,6.00,6,0.100,52379.000,0.200,4694.000,0.300,304.000,0.500,36.000,1.000,0,5.000,0
"03/06/08","08:05:14",57556.000,"cc",28314.559,6.00,6,0.100,52340.000,0.200,4791.000,0.300,362.000,0.500,59.000,1.000,4.000,5.000,0
"03/06/08","08:05:20",57561.000,"cc",28308.746,6.00,6,0.100,52382.000,0.200,4825.000,0.300,307.000,0.500,46.000,1.000,1.000,5.000,0
"03/06/08","08:05:26",57312.000,"cc",28287.822,6.00,6,0.100,52090.000,0.200,4867.000,0.300,314.000,0.500,41.000,1.000,0,5.000,0
"03/06/08","08:05:32",57142.000,"cc",28330.752,6.00,6,0.100,52010.000,0.200,4770.000,0.300,310.000,0.500,52.000,1.000,0,5.000,0
"03/06/08","08:05:38",56923.000,"cc",28285.273,6.00,6,0.100,51899.000,0.200,4731.000,0.300,262.000,0.500,30.000,1.000,1.000,5.000,0
"03/06/08","08:05:44",57440.000,"cc",28315.941,6.00,6,0.100,52223.000,0.200,4810.000,0.300,369.000,0.500,33.000,1.000,5.000,5.000,0
"03/06/08","08:05:50",57737.000,"cc",28301.807,6.00,6,0.100,52254.000,0.200,5070.000,0.300,355.000,0.500,57.000,1.000,1.000,5.000,0
"03/06/08","08:05:56",58127.000,"cc",28331.283,6.00,6,0.100,52927.000,0.200,4870.000,0.300,298.000,0.500,29.000,1.000,3.000,5.000,0
"03/06/08","08:06:02",57297.000,"cc",28370.641,6.00,6,0.100,52334.000,0.200,4634.000,0.300,296.000,0.500,32.000,1.000,1.000,5.000,0
"03/06/08","08:06:08",57275.000,"cc",28344.510,6.00,6,0.100,52046.000,0.200,4817.000,0.300,353.000,0.500,57.000,1.000,2.000,5.000,0
"03/06/08","08:06:14",57743.000,"cc",28259.402,6.00,6,0.100,52365.000,0.200,4949.000,0.300,383.000,0.500,46.000,1.000,0,5.000,0
"03/06/08","08:06:20",57520.000,"cc",28280.211,6.00,6,0.100,52266.000,0.200,4908.000,0.300,298.000,0.500,48.000,1.000,0,5.000,0
"03/06/08","08:06:26",57387.000,"cc",28314.805,6.00,6,0.100,52238.000,0.200,4766.000,0.300,341.000,0.500,42.000,1.000,0,5.000,0
"03/06/08","08:06:32",57746.000,"cc",28362.871,6.00,6,0.100,52412.000,0.200,4930.000,0.300,346.000,0.500,58.000,1.000,0,5.000,0
"03/06/08","08:06:38",57725.000,"cc",28315.672,6.00,6,0.100,52332.000,0.200,4978.000,0.300,369.000,0.500,44.000,1.000,2.000,5.000,0
"03/06/08","08:06:44",57624.000,"cc",28309.529,6.00,6,0.100,52418.000,0.200,4875.000,0.300,299.000,0.500,32.000,1.000,0,5.000,0
"03/06/08","08:06:50",58222.000,"cc",28314.525,6.00,6,0.100,52891.000,0.200,4912.000,0.300,365.000,0.500,53.000,1.000,1.000,5.000,0
"03/06/08","08:06:56",57594.000,"cc",28355.473,6.00,6,0.100,52388.000,0.200,4845.000,0.300,326.000,0.500,34.000,1.000,1.000,5.000,0
"03/06/08","08:07:02",58510.000,"cc",28276.547,6.00,6,0.100,53150.000,0.200,4901.000,0.300,389.000,0.500,69.000,1.000,1.000,5.000,0
"03/06/08","08:07:08",57785.000,"cc",28266.635,6.00,6,0.100,52522.000,0.200,4891.000,0.300,335.000,0.500,37.000,1.000,0,5.000,0
"03/06/08","08:07:14",58375.000,"cc",28254.815,6.00,6,0.100,53063.000,0.200,4859.000,0.300,395.000,0.500,57.000,1.000,1.000,5.000,0
"03/06/08","08:07:20",57957.000,"cc",28284.676,6.00,6,0.100,52581.000,0.200,4993.000,0.300,337.000,0.500,46.000,1.000,0,5.000,0
"03/06/08","08:07:26",57559.000,"cc",28300.117,6.00,6,0.100,52113.000,0.200,5052.000,0.300,340.000,0.500,53.000,1.000,1.000,5.000,0
"03/06/08","08:07:32",58047.000,"cc",28344.205,6.00,6,0.100,52758.000,0.200,4908.000,0.300,322.000,0.500,57.000,1.000,2.000,5.000,0
"03/06/08","08:07:38",57904.000,"cc",28329.170,6.00,6,0.100,52752.000,0.200,4808.000,0.300,303.000,0.500,40.000,1.000,1.000,5.000,0
"03/06/08","08:07:44",58337.000,"cc",28346.547,6.00,6,0.100,52879.000,0.200,5082.000,0.300,328.000,0.500,48.000,1.000,0,5.000,0
"03/06/08","08:07:50",58125.000,"cc",28322.742,6.00,6,0.100,52827.000,0.200,4926.000,0.300,333.000,0.500,36.000,1.000,3.000,5.000,0
"03/06/08","08:07:56",57931.000,"cc",28336.775,6.00,6,0.100,52395.000,0.200,5114.000,0.300,357.000,0.500,64.000,1.000,1.000,5.000,0
"03/06/08","08:08:02",58083.000,"cc",28313.816,6.00,6,0.100,52655.000,0.200,5003.000,0.300,377.000,0.500,47.000,1.000,1.000,5.000,0
"03/06/08","08:08:08",58483.000,"cc",28381.072,6.00,6,0.100,53097.000,0.200,4982.000,0.300,337.000,0.500,64.000,1.000,3.000,5.000,0
"03/06/08","08:08:14",57914.000,"cc",28338.102,6.00,6,0.100,52532.000,0.200,4977.000,0.300,361.000,0.500,43.000,1.000,1.000,5.000,0
"03/06/08","08:08:20",57598.000,"cc",28268.555,6.00,6,0.100,52352.000,0.200,4882.000,0.300,311.000,0.500,51.000,1.000,2.000,5.000,0
"03/06/08","08:08:26",58215.000,"cc",28298.656,6.00,6,0.100,53021.000,0.200,4797.000,0.300,343.000,0.500,51.000,1.000,3.000,5.000,0
"03/06/08","08:08:32",57834.000,"cc",28308.219,6.00,6,0.100,52433.000,0.200,5035.000,0.300,328.000,0.500,38.000,1.000,0,5.000,0
"03/06/08","08:08:38",57821.000,"cc",28320.367,6.00,6,0.100,52565.000,0.200,4819.000,0.300,382.000,0.500,54.000,1.000,1.000,5.000,0
"03/06/08","08:08:44",58431.000,"cc",28318.705,6.00,6,0.100,52970.000,0.200,5057.000,0.300,358.000,0.500,46.000,1.000,0,5.000,0
"03/06/08","08:08:50",58312.000,"cc",28323.951,6.00,6,0.100,52750.000,0.200,5128.000,0.300,382.000,0.500,50.000,1.000,2.000,5.000,0
"03/06/08","08:08:56",57796.000,"cc",28305.027,6.00,6,0.100,52524.000,0.200,4936.000,0.300,300.000,0.500,35.000,1.000,1.000,5.000,0
"03/06/08","08:09:02",57937.000,"cc",28279.242,6.00,6,0.100,52662.000,0.200,4860.000,0.300,367.000,0.500,47.000,1.000,1.000,5.000,0
"03/06/08","08:09:08",58630.000,"cc",28316.436,6.00,6,0.100,53390.000,0.200,4859.000,0.300,333.000,0.500,48.000,1.000,0,5.000,0
"03/06/08","08:09:14",58585.000,"cc",28347.828,6.00,6,0.100,53179.000,0.200,4996.000,0.300,359.000,0.500,50.000,1.000,1.000,5.000,0
"03/06/08","08:09:20",58582.000,"cc",28347.125,6.00,6,0.100,53273.000,0.200,4947.000,0.300,330.000,0.500,32.000,1.000,0,5.000,0
"03/06/08","08:09:26",58139.000,"cc",28287.070,6.00,6,0.100,52943.000,0.200,4799.000,0.300,353.000,0.500,44.000,1.000,0,5.000,0
"03/06/08","08:09:32",57995.000,"cc",28230.014,6.00,6,0.100,52617.000,0.200,4946.000,0.300,369.000,0.500,60.000,1.000,3.000,5.000,0
"03/06/08","08:09:38",58192.000,"cc",28307.523,6.00,6,0.100,52864.000,0.200,4933.000,0.300,345.000,0.500,47.000,1.000,3.000,5.000,0
"03/06/08","08:09:44",58345.000,"cc",28380.211,6.00,6,0.100,53035.000,0.200,4924.000,0.300,343.000,0.500,41.000,1.000,2.000,5.000,0
"03/06/08","08:09:50",58390.000,"cc",28382.572,6.00,6,0.100,53068.000,0.200,4925.000,0.300,353.000,0.500,42.000,1.000,2.000,5.000,0
"03/06/08","08:09:56",58504.000,"cc",28291.287,6.00,6,0.100,53243.000,0.200,4846.000,0.300,356.000,0.500,57.000,1.000,2.000,5.000,0
"03/06/08","08:10:02",58039.000,"cc",28325.377,6.00,6,0.100,52676.000,0.200,4978.000,0.300,340.000,0.500,45.000,1.000,0,5.000,0
"03/06/08","08:10:08",58472.000,"cc",28321.996,6.00,6,0.100,53047.000,0.200,5021.000,0.300,349.000,0.500,55.000,1.000,0,5.000,0
"03/06/08","08:10:14",58358.000,"cc",28275.172,6.00,6,0.100,52985.000,0.200,4963.000,0.300,355.000,0.500,54.000,1.000,1.000,5.000,0
"03/06/08","08:10:20",58345.000,"cc",28312.293,6.00,6,0.100,53043.000,0.200,4896.000,0.300,369.000,0.500,37.000,1.000,0,5.000,0
"03/06/08","08:10:26",57661.000,"cc",28329.979,6.00,6,0.100,52373.000,0.200,4892.000,0.300,339.000,0.500,57.000,1.000,0,5.000,0
"03/06/08","08:10:32",58120.000,"cc",28349.033,6.00,6,0.100,52751.000,0.200,4972.000,0.300,343.000,0.500,49.000,1.000,5.000,5.000,0
"03/06/08","08:10:38",58443.000,"cc",28312.604,6.00,6,0.100,53227.000,0.200,4809.000,0.300,347.000,0.500,57.000,1.000,3.000,5.000,0
"03/06/08","08:10:44",58147.000,"cc",28272.592,6.00,6,0.100,52880.000,0.200,4902.000,0.300,334.000,0.500,31.000,1.000,0,5.000,0
"03/06/08","08:10:50",58642.000,"cc",28345.752,6.00,6,0.100,53277.000,0.200,5006.000,0.300,319.000,0.500,37.000,1.000,3.000,5.000,0
"03/06/08","08:10:56",58486.000,"cc",28347.830,6.00,6,0.100,53043.000,0.200,4993.000,0.300,374.000,0.500,75.000,1.000,1.000,5.000,0
"03/06/08","08:11:02",58507.000,"cc",28280.250,6.00,6,0.100,53196.000,0.200,4931.000,0.300,328.000,0.500,50.000,1.000,2.000,5.000,0
"03/06/08","08:11:08",58438.000,"cc",28353.291,6.00,6,0.100,52999.000,0.200,5018.000,0.300,360.000,0.500,59.000,1.000,2.000,5.000,0
"03/06/08","08:11:14",58611.000,"cc",28289.848,6.00,6,0.100,53264.000,0.200,4931.000,0.300,360.000,0.500,55.000,1.000,1.000,5.000,0
"03/06/08","08:11:20",58464.000,"cc",28243.734,6.00,6,0.100,53023.000,0.200,5044.000,0.300,343.000,0.500,51.000,1.000,3.000,5.000,0
"03/06/08","08:11:26",58817.000,"cc",28405.869,6.00,6,0.100,53466.000,0.200,4948.000,0.300,358.000,0.500,44.000,1.000,1.000,5.000,0
"03/06/08","08:11:32",58738.000,"cc",28249.975,6.00,6,0.100,53350.000,0.200,4945.000,0.300,398.000,0.500,45.000,1.000,0,5.000,0
"03/06/08","08:11:38",58733.000,"cc",28356.414,6.00,6,0.100,53315.000,0.200,5005.000,0.300,368.000,0.500,44.000,1.000,1.000,5.000,0
"03/06/08","08:11:44",58704.000,"cc",28356.338,6.00,6,0.100,53261.000,0.200,5035.000,0.300,367.000,0.500,39.000,1.000,2.000,5.000,0
"03/06/08","08:11:50",58286.000,"cc",28365.141,6.00,6,0.100,52852.000,0.200,5047.000,0.300,357.000,0.500,29.000,1.000,1.000,5.000,0
"03/06/08","08:11:56",58776.000,"cc",28242.588,6.00,6,0.100,53308.000,0.200,5018.000,0.300,386.000,0.500,64.000,1.000,0,5.000,0
"03/06/08","08:12:02",58705.000,"cc",28361.109,6.00,6,0.100,53382.000,0.200,4960.000,0.300,339.000,0.500,23.000,1.000,1.000,5.000,0
"03/06/08","08:12:08",58273.000,"cc",28338.600,6.00,6,0.100,52842.000,0.200,5016.000,0.300,358.000,0.500,55.000,1.000,2.000,5.000,0
"03/06/08","08:12:14",58917.000,"cc",28334.861,6.00,6,0.100,53439.000,0.200,5039.000,0.300,389.000,0.500,47.000,1.000,3.000,5.000,0
"03/06/08","08:12:20",58528.000,"cc",28298.473,6.00,6,0.100,53075.000,0.200,5004.000,0.300,376.000,0.500,72.000,1.000,1.000,5.000,0
"03/06/08","08:12:26",58703.000,"cc",28268.897,6.00,6,0.100,53305.000,0.200,5015.000,0.300,330.000,0.500,51.000,1.000,2.000,5.000,0
"03/06/08","08:12:32",58953.000,"cc",28237.100,6.00,6,0.100,53512.000,0.200,5011.000,0.300,366.000,0.500,62.000,1.000,2.000,5.000,0
"03/06/08","08:12:38",58737.000,"cc",28365.965,6.00,6,0.100,53368.000,0.200,4930.000,0.300,384.000,0.500,51.000,1.000,4.000,5.000,0
"03/06/08","08:12:44",58465.000,"cc",28322.947,6.00,6,0.100,52902.000,0.200,5105.000,0.300,401.000,0.500,54.000,1.000,3.000,5.000,0
"03/06/08","08:12:50",58854.000,"cc",28294.363,6.00,6,0.100,53253.000,0.200,5178.000,0.300,377.000,0.500,46.000,1.000,0,5.000,0
"03/06/08","08:12:56",58966.000,"cc",28336.139,6.00,6,0.100,53469.000,0.200,5011.000,0.300,405.000,0.500,81.000,1.000,0,5.000,0
"03/06/08","08:13:02",58762.000,"cc",28412.420,6.00,6,0.100,53195.000,0.200,5047.000,0.300,431.000,0.500,89.000,1.000,0,5.000,0
"03/06/08","08:13:08",58977.000,"cc",28327.828,6.00,6,0.100,53374.000,0.200,5081.000,0.300,448.000,0.500,72.000,1.000,2.000,5.000,0
"03/06/08","08:13:14",58892.000,"cc",28393.006,6.00,6,0.100,53384.000,0.200,5036.000,0.300,376.000,0.500,95.000,1.000,1.000,5.000,0
"03/06/08","08:13:20",58561.000,"cc",28259.799,6.00,6,0.100,52982.000,0.200,5092.000,0.300,419.000,0.500,67.000,1.000,1.000,5.000,0
"03/06/08","08:13:26",59042.000,"cc",28264.928,6.00,6,0.100,53276.000,0.200,5189.000,0.300,464.000,0.500,111.000,1.000,2.000,5.000,0
"03/06/08","08:13:32",59333.000,"cc",28267.098,6.00,6,0.100,53664.000,0.200,5183.000,0.300,427.000,0.500,55.000,1.000,4.000,5.000,0
"03/06/08","08:13:38",59387.000,"cc",28295.190,6.00,6,0.100,53724.000,0.200,5096.000,0.300,488.000,0.500,74.000,1.000,5.000,5.000,0
"03/06/08","08:13:44",59050.000,"cc",28294.988,6.00,6,0.100,53455.000,0.200,5182.000,0.300,348.000,0.500,63.000,1.000,2.000,5.000,0
"03/06/08","08:13:50",60047.000,"cc",28317.625,6.00,6,0.100,54364.000,0.200,5171.000,0.300,417.000,0.500,93.000,1.000,2.000,5.000,0
"03/06/08","08:13:56",59155.000,"cc",28318.188,6.00,6,0.100,53429.000,0.200,5221.000,0.300,425.000,0.500,78.000,1.000,2.000,5.000,0
"03/06/08","08:14:02",59639.000,"cc",28299.606,6.00,6,0.100,54061.000,0.200,5094.000,0.300,411.000,0.500,73.000,1.000,0,5.000,0
"03/06/08","08:14:08",59388.000,"cc",28333.934,6.00,6,0.100,53667.000,0.200,5212.000,0.300,433.000,0.500,75.000,1.000,1.000,5.000,0
"03/06/08","08:14:14",59647.000,"cc",28327.715,6.00,6,0.100,53990.000,0.200,5163.000,0.300,411.000,0.500,81.000,1.000,2.000,5.000,0
"03/06/08","08:14:20",59505.000,"cc",28374.481,6.00,6,0.100,53803.000,0.200,5254.000,0.300,391.000,0.500,55.000,1.000,2.000,5.000,0
"03/06/08","08:14:26",59561.000,"cc",28301.986,6.00,6,0.100,53719.000,0.200,5309.000,0.300,446.000,0.500,84.000,1.000,3.000,5.000,0
"03/06/08","08:14:32",59544.000,"cc",28361.283,6.00,6,0.100,53726.000,0.200,5260.000,0.300,469.000,0.500,86.000,1.000,3.000,5.000,0
"03/06/08","08:14:38",59818.000,"cc",28340.094,6.00,6,0.100,53999.000,0.200,5267.000,0.300,458.000,0.500,92.000,1.000,2.000,5.000,0
"03/06/08","08:14:44",59975.000,"cc",28261.846,6.00,6,0.100,54071.000,0.200,5374.000,0.300,462.000,0.500,66.000,1.000,2.000,5.000,0
"03/06/08","08:14:50",59782.000,"cc",28350.025,6.00,6,0.100,54007.000,0.200,5211.000,0.300,469.000,0.500,91.000,1.000,4.000,5.000,0
"03/06/08","08:14:56",60238.000,"cc",28292.471,6.00,6,0.100,54263.000,0.200,5362.000,0.300,510.000,0.500,97.000,1.000,6.000,5.000,0
"03/06/08","08:15:02",59958.000,"cc",28320.223,6.00,6,0.100,53853.000,0.200,5399.000,0.300,552.000,0.500,147.000,1.000,7.000,5.000,0
"03/06/08","08:15:08",59854.000,"cc",28324.830,6.00,6,0.100,54053.000,0.200,5306.000,0.300,421.000,0.500,71.000,1.000,3.000,5.000,0
"03/06/08","08:15:14",60327.000,"cc",28341.004,6.00,6,0.100,54414.000,0.200,5347.000,0.300,467.000,0.500,93.000,1.000,6.000,5.000,0
"03/06/08","08:15:20",59047.000,"cc",28347.943,6.00,6,0.100,53151.000,0.200,5329.000,0.300,484.000,0.500,82.000,1.000,1.000,5.000,0
"03/06/08","08:15:26",59328.000,"cc",28315.678,6.00,6,0.100,53557.000,0.200,5179.000,0.300,488.000,0.500,103.000,1.000,1.000,5.000,0
"03/06/08","08:15:32",59821.000,"cc",28285.535,6.00,6,0.100,54021.000,0.200,5274.000,0.300,445.000,0.500,78.000,1.000,3.000,5.000,0
"03/06/08","08:15:38",59678.000,"cc",28265.875,6.00,6,0.100,53809.000,0.200,5312.000,0.300,464.000,0.500,88.000,1.000,5.000,5.000,0
"03/06/08","08:15:44",59687.000,"cc",28343.656,6.00,6,0.100,53720.000,0.200,5394.000,0.300,468.000,0.500,102.000,1.000,3.000,5.000,0
"03/06/08","08:15:50",59498.000,"cc",28369.193,6.00,6,0.100,53784.000,0.200,5228.000,0.300,421.000,0.500,63.000,1.000,2.000,5.000,0
"03/06/08","08:15:56",60140.000,"cc",28296.332,6.00,6,0.100,54329.000,0.200,5318.000,0.300,415.000,0.500,74.000,1.000,4.000,5.000,0
"03/06/08","08:16:02",59675.000,"cc",28317.557,6.00,6,0.100,53669.000,0.200,5338.000,0.300,541.000,0.500,121.000,1.000,6.000,5.000,0
"03/06/08","08:16:08",59983.000,"cc",28251.422,6.00,6,0.100,53932.000,0.200,5402.000,0.300,551.000,0.500,95.000,1.000,3.000,5.000,0
"03/06/08","08:16:14",60130.000,"cc",28332.963,6.00,6,0.100,54026.000,0.200,5474.000,0.300,498.000,0.500,132.000,1.000,0,5.000,0
"03/06/08","08:16:20",60014.000,"cc",28270.570,6.00,6,0.100,54058.000,0.200,5270.000,0.300,566.000,0.500,117.000,1.000,3.000,5.000,0
"03/06/08","08:16:26",60368.000,"cc",28356.510,6.00,6,0.100,54192.000,0.200,5454.000,0.300,566.000,0.500,150.000,1.000,6.000,5.000,0
"03/06/08","08:16:32",60579.000,"cc",28306.557,6.00,6,0.100,54291.000,0.200,5577.000,0.300,563.000,0.500,143.000,1.000,5.000,5.000,0
"03/06/08","08:16:38",59903.000,"cc",28389.988,6.00,6,0.100,53881.000,0.200,5375.000,0.300,521.000,0.500,123.000,1.000,3.000,5.000,0
"03/06/08","08:16:44",60030.000,"cc",28367.764,6.00,6,0.100,53741.000,0.200,5544.000,0.300,575.000,0.500,163.000,1.000,7.000,5.000,0
"03/06/08","08:16:50",60173.000,"cc",28255.770,6.00,6,0.100,54052.000,0.200,5449.000,0.300,518.000,0.500,147.000,1.000,7.000,5.000,0
"03/06/08","08:16:56",60407.000,"cc",28329.615,6.00,6,0.100,54283.000,0.200,5395.000,0.300,596.000,0.500,128.000,1.000,5.000,5.000,0
"03/06/08","08:17:02",59784.000,"cc",28271.781,6.00,6,0.100,53627.000,0.200,5419.000,0.300,581.000,0.500,152.000,1.000,5.000,5.000,0
"03/06/08","08:17:08",60684.000,"cc",28286.139,6.00,6,0.100,54074.000,0.200,5700.000,0.300,698.000,0.500,193.000,1.000,19.000,5.000,0